[[{"header":{"parameterUnit":"m.s-1","parameterCategory":2,"la1":30.2991,"la2":30.254,"lo1":-89.0895,"lo2":-89.0444,"dy":0.0017,"dx":0.0017,"nx":28,"ny":28,"refTime":"2025-01-24T03:00:00:Z","depth":"0","parameterNumber":2,"parameterNumberName":"U-component_of_CURRENTS"},"data":[0,0,0,0,0,0,0,0,0,0,0,0,0,0,0,0,0,0,0,0,0,0,0,0,0,0,0,0,0,0,0,0,0,0,0,0,0,0,0,0,0,0,0,0,0,0,0,0,0,0,0,0,0,0,0,0,0,0,-0.4856,-0.486,0,-0.5048,-0.5048,-0.5047,-0.5009,-0.5008,-0.5007,-0.5006,-0.4733,-0.4727,-0.472,0,0,0,0,0,0,0,0,0,0,0,0,0,-0.4551,-0.4553,-0.4855,-0.4861,-0.4866,-0.5048,-0.5048,-0.5047,-0.5009,-0.5008,-0.5007,-0.5006,-0.4735,-0.4728,-0.472,0,0,0,0,0,0,0,0,0,0,0,0,0,-0.4679,-0.4554,-0.4855,-0.489,-0.4897,-0.5048,-0.5048,-0.5047,-0.5009,-0.5008,-0.5007,-0.5006,-0.4738,-0.4728,-0.4719,-0.4683,0,0,-0.4689,-0.4685,0,0,0,0,0,0,0,0,-0.4671,-0.4686,-0.488,-0.4888,-0.4897,-0.5029,-0.4842,-0.4913,-0.501,-0.4936,-0.5006,-0.5005,-0.4809,-0.4793,-0.4797,-0.467,-0.4659,-0.4688,-0.4682,-0.4678,-0.4675,0,0,0,0,0,0,0,-0.4662,-0.4679,-0.4902,-0.4886,-0.4897,-0.4932,-0.4944,-0.4855,-0.4845,-0.4942,-0.4947,-0.5016,-0.4806,-0.4807,-0.4789,-0.4654,-0.4688,-0.468,-0.4674,-0.467,-0.452,-0.4521,0,0,0,0,0,0,-0.4695,-0.467,-0.4896,-0.4911,-0.4812,-0.494,-0.4952,-0.4964,-0.4857,-0.4852,-0.5017,-0.5014,-0.4824,-0.4801,-0.4779,-0.4746,-0.4678,-0.4669,-0.4663,-0.4518,-0.452,-0.4522,0,0,0,0,0,0,-0.4686,-0.471,-0.4889,-0.4821,-0.485,-0.4948,-0.496,-0.4969,-0.4991,-0.4924,-0.4903,-0.5037,-0.4822,-0.4793,-0.4732,-0.4734,-0.4664,-0.4655,-0.4516,-0.4518,-0.4521,-0.4667,0,0,0,0,0,0,-0.4675,-0.4704,-0.4686,-0.4822,-0.4856,-0.5008,-0.4965,-0.4974,-0.5049,-0.5046,-0.4934,-0.4907,-0.4819,-0.4748,-0.4723,-0.4719,-0.4648,-0.4513,-0.4517,-0.452,-0.466,-0.4675,-0.4687,0,0,0,0,0,-0.4662,-0.4682,-0.4682,-0.4711,-0.4838,-0.5015,-0.5032,-0.5079,-0.5052,-0.5083,-0.5005,-0.4911,-0.4752,-0.4742,-0.4712,-0.4705,-0.4511,-0.4516,-0.452,-0.4654,-0.4672,-0.4687,0,0,0,0,0,0,-0.4577,-0.4687,-0.4689,-0.4745,-0.4882,-0.502,-0.504,-0.5099,-0.5068,-0.5025,-0.4932,-0.4901,-0.4845,-0.477,-0.4762,-0.4678,-0.4617,-0.4615,-0.4729,-0.4744,-0.4758,-0.4696,-0.464,0,0,0,0,0,-0.4547,-0.4567,-0.4718,-0.4776,-0.4809,-0.4918,-0.4982,-0.5045,-0.5077,-0.5064,-0.4999,-0.4909,-0.484,-0.4792,-0.4714,-0.4665,-0.4523,-0.4645,-0.4659,-0.4671,-0.4604,-0.444,-0.443,-0.4536,-0.4536,-0.4536,0,0,-0.4559,-0.4612,-0.4636,-0.4757,-0.4814,-0.4868,-0.4942,-0.5061,-0.5088,-0.5028,-0.497,-0.4946,-0.4842,-0.4794,-0.4761,-0.4727,-0.4577,-0.4676,-0.4687,-0.4611,-0.4443,-0.4431,-0.4421,-0.4539,-0.4538,-0.4538,0,0,-0.4578,-0.4596,-0.4591,-0.4676,-0.4805,-0.4868,-0.4914,-0.5044,-0.5053,-0.5074,-0.5018,-0.5012,-0.4905,-0.4852,-0.4802,-0.4842,-0.4657,-0.483,-0.4832,-0.4678,-0.4666,-0.4653,-0.4493,-0.4464,-0.4833,-0.4834,-0.4834,0,-0.4547,-0.4571,-0.4644,-0.4659,-0.4709,-0.4856,-0.488,-0.4932,-0.5042,-0.5013,-0.5056,-0.4942,-0.4917,-0.4817,-0.4875,-0.4863,-0.4731,-0.4784,-0.469,-0.4674,-0.4658,-0.4496,-0.4462,-0.4841,-0.484,-0.484,-0.4839,0,-0.4576,-0.4571,-0.4588,-0.4597,-0.4665,-0.4747,-0.4837,-0.4867,-0.4907,-0.4957,-0.4918,-0.4933,-0.4855,-0.4899,-0.4906,-0.4805,-0.4735,-0.473,-0.464,-0.4655,-0.4486,-0.4448,-0.4852,-0.4849,-0.4847,-0.4845,0,0,-0.45,-0.4573,-0.4565,-0.4529,-0.4633,-0.4691,-0.4694,-0.4733,-0.4688,-0.4798,-0.4721,-0.4769,-0.4812,-0.4762,-0.4798,-0.473,-0.4607,-0.4705,-0.4693,-0.4527,-0.4225,-0.4159,-0.411,-0.4572,-0.4566,-0.4561,-0.4161,0,-0.4457,-0.4453,-0.4516,-0.4494,-0.4465,-0.4555,-0.4544,-0.4595,-0.4626,-0.459,-0.4639,-0.4599,-0.4745,-0.4741,-0.4703,-0.4627,-0.4506,-0.4712,-0.4245,-0.4229,-0.4153,-0.4065,-0.3958,-0.3589,-0.4124,-0.4117,-0.4112,0,-0.4401,-0.4389,-0.4367,-0.4351,-0.4344,-0.4374,-0.4319,-0.4354,-0.4346,-0.4363,-0.4362,-0.4392,-0.4373,-0.4483,-0.4298,-0.4415,-0.4306,-0.4248,-0.423,-0.4065,-0.409,-0.3653,-0.3498,-0.3491,-0.4053,-0.4058,-0.4062,0,-0.4235,-0.4256,-0.422,-0.4233,-0.4263,-0.4239,-0.4267,-0.4269,-0.425,-0.4216,-0.4175,-0.4152,-0.4127,-0.4018,-0.402,-0.4107,-0.3752,-0.3837,-0.3635,-0.3629,-0.3385,-0.3368,-0.3135,-0.3576,-0.3576,-0.3578,-0.3579,0,-0.4117,-0.4063,-0.4147,-0.411,-0.4043,-0.4118,-0.405,-0.4061,-0.4059,-0.3984,-0.4064,-0.3977,-0.4005,-0.3871,-0.3851,-0.3628,-0.3594,-0.3553,-0.3492,-0.3443,-0.3437,-0.3298,-0.3364,-0.3563,-0.3566,-0.3569,-0.3571,0,-0.3911,-0.3989,-0.3911,-0.3941,-0.3958,-0.3904,-0.3954,-0.3901,-0.3925,-0.3813,-0.3795,-0.3783,-0.3627,-0.36,-0.3396,-0.3378,-0.3122,-0.3096,-0.3054,-0.2997,-0.2858,-0.2937,-0.2547,-0.2475,-0.2774,-0.277,-0.2766,0,-0.3796,-0.3753,-0.3768,-0.3747,-0.3765,-0.375,-0.3741,-0.3812,-0.3772,-0.3681,-0.3596,-0.345,-0.3321,-0.3036,-0.2965,-0.2773,-0.2849,-0.2549,-0.2717,-0.2755,-0.2797,-0.288,-0.2857,-0.2452,-0.2446,-0.2441,-0.2437,0,-0.3532,-0.357,-0.3532,-0.351,-0.3502,-0.3494,-0.3504,-0.3457,-0.3491,-0.3385,-0.3214,-0.3097,-0.2887,-0.2688,-0.2507,-0.2416,-0.2522,-0.2441,-0.2448,-0.2466,-0.2556,-0.2491,-0.2839,-0.2393,-0.2398,-0.2401,-0.2403,-0.2405,-0.3328,-0.3263,-0.3261,-0.3229,-0.3237,-0.321,-0.3129,-0.3134,-0.3019,-0.2829,-0.2857,-0.2633,-0.2524,-0.2286,-0.2177,-0.2019,-0.2145,-0.1995,-0.2061,-0.2121,-0.2126,-0.2391,-0.1933,-0.1935,-0.1936,-0.1937,-0.1939,0,-0.3049,-0.3027,-0.2984,-0.2938,-0.2892,-0.298,-0.2928,-0.2809,-0.2594,-0.2508,-0.2342,-0.2199,-0.2,-0.1943,-0.18,-0.1695,-0.1695,-0.1664,-0.1757,-0.1733,-0.1881,-0.1952,-0.1516,-0.1516,-0.1516,-0.1516,-0.1516,-0.1516,-0.2888,-0.2775,-0.2777,-0.2615,-0.26,-0.2455,-0.2387,-0.2223,-0.2129,-0.1878,-0.1794,-0.1796,-0.1781,-0.1842,-0.1679,-0.1579,-0.1577,-0.15,-0.155,-0.1719,-0.1758,-0.1795,-0.1875,-0.143,-0.143,-0.1343,-0.1343,-0.1342]},{"header":{"parameterUnit":"m.s-1","parameterCategory":2,"la1":30.2991,"la2":30.254,"lo1":-89.0895,"lo2":-89.0444,"dy":0.0017,"dx":0.0017,"nx":28,"ny":28,"refTime":"2025-01-24T03:00:00:Z","depth":"0","parameterNumber":3,"parameterNumberName":"V-component_of_CURRENTS"},"data":[0,0,0,0,0,0,0,0,0,0,0,0,0,0,0,0,0,0,0,0,0,0,0,0,0,0,0,0,0,0,0,0,0,0,0,0,0,0,0,0,0,0,0,0,0,0,0,0,0,0,0,0,0,0,0,0,0,0,0.0732,0.0737,0,0.1079,0.1081,0.1084,0.1219,0.122,0.1221,0.1221,0.1323,0.1325,0.1327,0,0,0,0,0,0,0,0,0,0,0,0,0,0.0248,0.0254,0.0732,0.0738,0.0744,0.1079,0.1082,0.1085,0.1219,0.122,0.1221,0.1222,0.1323,0.1325,0.1327,0,0,0,0,0,0,0,0,0,0,0,0,0,0.0495,0.0256,0.0731,0.0865,0.0881,0.1078,0.1082,0.1085,0.1219,0.122,0.1221,0.1222,0.1322,0.1325,0.1328,0.1325,0,0,0.1337,0.1338,0,0,0,0,0,0,0,0,0.048,0.051,0.0839,0.0856,0.0875,0.1123,0.095,0.116,0.1219,0.1071,0.1221,0.1223,0.1245,0.1254,0.1294,0.133,0.1334,0.1337,0.1339,0.1341,0.1341,0,0,0,0,0,0,0,0.0463,0.0497,0.0851,0.0846,0.0868,0.0931,0.0964,0.099,0.1129,0.1084,0.1099,0.1167,0.125,0.1291,0.1297,0.1335,0.1337,0.134,0.1342,0.1343,0.1352,0.1351,0,0,0,0,0,0,0.0454,0.048,0.084,0.0863,0.0697,0.0939,0.0976,0.1027,0.1134,0.1159,0.1166,0.1172,0.1285,0.1294,0.1301,0.1259,0.134,0.1343,0.1345,0.1354,0.1352,0.135,0,0,0,0,0,0,0.0442,0.0482,0.0826,0.0694,0.0745,0.0948,0.1004,0.1034,0.1083,0.1203,0.1219,0.1186,0.1287,0.1297,0.1315,0.1265,0.1345,0.1348,0.1356,0.1353,0.1351,0.1201,0,0,0,0,0,0,0.0426,0.0474,0.0463,0.0694,0.0753,0.0916,0.1006,0.1041,0.1132,0.1143,0.1225,0.1236,0.1288,0.131,0.1318,0.1271,0.135,0.1358,0.1355,0.1352,0.1208,0.1194,0.1182,0,0,0,0,0,0.0406,0.0405,0.046,0.0503,0.0746,0.0917,0.0948,0.1085,0.1131,0.1132,0.1194,0.1234,0.1297,0.1311,0.1321,0.1273,0.1359,0.1355,0.1352,0.1214,0.1197,0.1182,0,0,0,0,0,0,0.022,0.0428,0.0491,0.056,0.0714,0.0946,0.0964,0.1073,0.113,0.1127,0.122,0.1234,0.1228,0.1274,0.1288,0.1268,0.1331,0.1329,0.1223,0.1207,0.1194,0.121,0.1352,0,0,0,0,0,0.0169,0.0205,0.0434,0.0489,0.0546,0.0746,0.0821,0.0933,0.105,0.1079,0.1146,0.1195,0.1221,0.1233,0.1265,0.1255,0.1309,0.123,0.1216,0.1205,0.1225,0.1304,0.13,0.1338,0.1338,0.1339,0,0,0.0132,0.0241,0.0272,0.0447,0.0562,0.0609,0.0787,0.0904,0.0937,0.1073,0.1079,0.1149,0.1209,0.12,0.12,0.1231,0.12,0.12,0.119,0.1217,0.13,0.1296,0.1293,0.1336,0.1336,0.1337,0,0,0.0045,0.0147,0.0124,0.0226,0.0398,0.0514,0.0541,0.075,0.0818,0.0872,0.0962,0.1019,0.1055,0.1109,0.1133,0.1068,0.1129,0.1057,0.1003,0.1076,0.1075,0.1074,0.1044,0.1043,0.105,0.105,0.1049,0,-0.0037,0.0003,0.015,0.0152,0.0231,0.0449,0.0459,0.0548,0.0737,0.081,0.0838,0.0978,0.1014,0.1051,0.1022,0.1038,0.1065,0.1052,0.106,0.1062,0.1064,0.1035,0.1035,0.1042,0.1043,0.1044,0.1044,0,-0.013,-0.0107,-0.0103,-0.0052,0.0028,0.0098,0.0262,0.0329,0.0442,0.0584,0.0685,0.0781,0.0887,0.0881,0.0924,0.0955,0.0957,0.1033,0.11,0.1051,0.1022,0.1024,0.1031,0.1034,0.1036,0.1038,0,0,-0.0291,-0.0196,-0.02,-0.0177,-0.0054,0.0035,0.0047,0.0196,0.027,0.0411,0.0513,0.0579,0.0725,0.0764,0.0847,0.0906,0.0892,0.0962,0.097,0.0929,0.0983,0.096,0.0961,0.0981,0.0983,0.0984,0.0922,0,-0.0412,-0.0437,-0.036,-0.0365,-0.0346,-0.0171,-0.0148,0.0008,0.0154,0.0286,0.0462,0.0564,0.0649,0.0709,0.0784,0.0893,0.091,0.0898,0.1042,0.1045,0.1032,0.0969,0.1009,0.0959,0.0925,0.0926,0.0926,0,-0.055,-0.0528,-0.0564,-0.0447,-0.0422,-0.0413,-0.0257,-0.0191,0.0024,0.0149,0.0318,0.0477,0.0591,0.0671,0.0828,0.0821,0.0879,0.0951,0.0952,0.1005,0.1032,0.1024,0.0967,0.1149,0.0932,0.0932,0.0931,0,-0.0697,-0.0661,-0.068,-0.0647,-0.0521,-0.0496,-0.0416,-0.0227,-0.0121,0.0073,0.0164,0.0374,0.0457,0.0614,0.075,0.0799,0.0898,0.0989,0.1007,0.1001,0.1104,0.1107,0.1256,0.1078,0.1078,0.1078,0.1078,0,-0.0836,-0.0838,-0.0744,-0.0743,-0.0706,-0.0593,-0.0511,-0.0393,-0.022,-0.0108,0.0094,0.0186,0.0456,0.0564,0.0705,0.0835,0.0856,0.0983,0.1005,0.1039,0.1036,0.126,0.1343,0.1075,0.1076,0.1076,0.1077,0,-0.0978,-0.0936,-0.0924,-0.082,-0.0777,-0.0745,-0.0567,-0.0479,-0.0351,-0.0223,-0.0176,0.004,0.0183,0.0392,0.0601,0.0739,0.098,0.0906,0.0865,0.0887,0.1137,0.1207,0.1358,0.1453,0.0959,0.0958,0.0958,0,-0.104,-0.1064,-0.0977,-0.0936,-0.089,-0.0802,-0.0714,-0.0554,-0.0468,-0.0317,-0.0276,-0.013,0.0005,0.0263,0.0534,0.0746,0.0917,0.0882,0.1021,0.1142,0.1238,0.1293,0.1368,0.1046,0.1047,0.1047,0.1047,0,-0.1123,-0.1109,-0.1075,-0.1,-0.0934,-0.0842,-0.0736,-0.0704,-0.0545,-0.0489,-0.0425,-0.0333,-0.0052,0.0244,0.0518,0.0674,0.1038,0.0894,0.1085,0.1367,0.1379,0.1483,0.1013,0.1049,0.1049,0.1049,0.1048,0.1048,-0.1148,-0.1136,-0.1082,-0.1003,-0.0945,-0.0893,-0.0846,-0.0777,-0.0721,-0.0637,-0.0552,-0.0392,0.0054,0.0494,0.0649,0.1058,0.1065,0.1244,0.1316,0.1357,0.1485,0.0954,0.0992,0.0992,0.0991,0.0991,0.0991,0,-0.1095,-0.1081,-0.1044,-0.0971,-0.0936,-0.0895,-0.0837,-0.0811,-0.0817,-0.0701,-0.0625,-0.0151,0.0276,0.0707,0.1262,0.1492,0.1582,0.1611,0.1756,0.1817,0.1413,0.146,0.1525,0.1525,0.1525,0.1525,0.1525,0.1524,-0.1055,-0.0995,-0.0978,-0.0934,-0.0922,-0.0888,-0.0883,-0.0892,-0.0807,-0.0612,-0.0348,-0.0113,0.051,0.1363,0.1887,0.1938,0.2176,0.2127,0.2241,0.2029,0.2003,0.1978,0.2046,0.2234,0.2234,0.266,0.2664,0.2668]}],[{"header":{"parameterUnit":"m.s-1","parameterCategory":2,"la1":30.2991,"la2":30.254,"lo1":-89.0895,"lo2":-89.0444,"dy":0.0017,"dx":0.0017,"nx":28,"ny":28,"refTime":"2025-01-24T03:00:00:Z","depth":"2","parameterNumber":2,"parameterNumberName":"U-component_of_CURRENTS"},"data":[0,0,0,0,0,0,0,0,0,0,0,0,0,0,0,0,0,0,0,0,0,0,0,0,0,0,0,0,0,0,0,0,0,0,0,0,0,0,0,0,0,0,0,0,0,0,0,0,0,0,0,0,0,0,0,0,0,0,-0.271,-0.2708,0,-0.2829,-0.2834,-0.2839,-0.2883,-0.2878,-0.2874,-0.287,-0.286,-0.2864,-0.2868,0,0,0,0,0,0,0,0,0,0,0,0,0,-0.262,-0.2624,-0.271,-0.2708,-0.2705,-0.2829,-0.2834,-0.284,-0.2883,-0.2878,-0.2873,-0.2868,-0.2859,-0.2864,-0.2868,0,0,0,0,0,0,0,0,0,0,0,0,0,-0.2731,-0.2626,-0.271,-0.2711,-0.2709,-0.2827,-0.2835,-0.2842,-0.2885,-0.2878,-0.2872,-0.2866,-0.2858,-0.2863,-0.2869,-0.3031,0,0,-0.2886,-0.2888,0,0,0,0,0,0,0,0,-0.2725,-0.274,-0.2713,-0.271,-0.2708,-0.2797,-0.2796,-0.2884,-0.2886,-0.2863,-0.287,-0.2863,-0.2805,-0.2814,-0.2913,-0.303,-0.303,-0.2886,-0.289,-0.2892,-0.2894,0,0,0,0,0,0,0,-0.2717,-0.2735,-0.28,-0.271,-0.2707,-0.2735,-0.2749,-0.2818,-0.2898,-0.2864,-0.2857,-0.2805,-0.2807,-0.2908,-0.2912,-0.303,-0.2886,-0.2891,-0.2894,-0.2897,-0.3145,-0.3148,0,0,0,0,0,0,-0.262,-0.2728,-0.2795,-0.2799,-0.2653,-0.2739,-0.2755,-0.281,-0.29,-0.2896,-0.281,-0.2806,-0.2902,-0.2905,-0.2911,-0.3001,-0.2892,-0.2897,-0.29,-0.3141,-0.3145,-0.3149,0,0,0,0,0,0,-0.2621,-0.2631,-0.279,-0.2725,-0.2742,-0.2742,-0.2806,-0.2814,-0.2903,-0.2853,-0.2854,-0.288,-0.2897,-0.2903,-0.2927,-0.3002,-0.29,-0.2905,-0.3138,-0.3143,-0.3147,-0.3246,0,0,0,0,0,0,-0.262,-0.2634,-0.2665,-0.2723,-0.274,-0.277,-0.2808,-0.282,-0.2859,-0.2857,-0.2914,-0.2907,-0.2892,-0.2919,-0.2932,-0.3008,-0.2909,-0.3133,-0.314,-0.3146,-0.3239,-0.3254,-0.3267,0,0,0,0,0,-0.2619,-0.2658,-0.267,-0.2673,-0.278,-0.2763,-0.2781,-0.2786,-0.2868,-0.2866,-0.2927,-0.2905,-0.2967,-0.2926,-0.2941,-0.302,-0.313,-0.3138,-0.3145,-0.3233,-0.3251,-0.3266,0,0,0,0,0,0,-0.2631,-0.2664,-0.2677,-0.2728,-0.2695,-0.2751,-0.2781,-0.2818,-0.29,-0.295,-0.2947,-0.2943,-0.2998,-0.3003,-0.2957,-0.311,-0.305,-0.306,-0.3111,-0.3129,-0.3142,-0.3028,-0.2914,0,0,0,0,0,-0.2646,-0.2679,-0.2684,-0.27,-0.2729,-0.2791,-0.2807,-0.2824,-0.287,-0.291,-0.2924,-0.2991,-0.3062,-0.3075,-0.3112,-0.3207,-0.3115,-0.3269,-0.3283,-0.3294,-0.3213,-0.3146,-0.3143,-0.3173,-0.3173,-0.3173,0,0,-0.262,-0.2654,-0.2656,-0.2698,-0.275,-0.2819,-0.28,-0.2842,-0.2906,-0.2897,-0.3015,-0.3036,-0.3095,-0.3177,-0.3206,-0.3176,-0.3253,-0.3304,-0.3313,-0.3223,-0.3152,-0.3148,-0.3145,-0.3178,-0.3177,-0.3176,0,0,-0.2619,-0.2679,-0.2733,-0.2752,-0.2785,-0.2834,-0.2843,-0.2916,-0.2959,-0.304,-0.3081,-0.3103,-0.3217,-0.3238,-0.3288,-0.3408,-0.3327,-0.3466,-0.3448,-0.3388,-0.3382,-0.3376,-0.3298,-0.3283,-0.3475,-0.3475,-0.3475,0,-0.2607,-0.2697,-0.2718,-0.2808,-0.2815,-0.2857,-0.2925,-0.3016,-0.3056,-0.3049,-0.3057,-0.3194,-0.3244,-0.3339,-0.3375,-0.3436,-0.3364,-0.3386,-0.3398,-0.3389,-0.3381,-0.3302,-0.3284,-0.3481,-0.348,-0.348,-0.3479,0,-0.2673,-0.2748,-0.2792,-0.2934,-0.2943,-0.2996,-0.307,-0.3111,-0.3178,-0.3187,-0.323,-0.3289,-0.3318,-0.3399,-0.3433,-0.3444,-0.3403,-0.342,-0.3337,-0.3382,-0.3299,-0.3279,-0.3489,-0.3487,-0.3485,-0.3484,0,0,-0.2657,-0.2812,-0.283,-0.2875,-0.3022,-0.3015,-0.3154,-0.3182,-0.3212,-0.3261,-0.3245,-0.3396,-0.3348,-0.3395,-0.3454,-0.3406,-0.3344,-0.338,-0.3375,-0.3267,-0.3172,-0.3114,-0.3085,-0.3355,-0.3351,-0.3348,-0.3152,0,-0.2713,-0.2854,-0.292,-0.301,-0.3091,-0.3143,-0.3211,-0.3236,-0.3266,-0.3251,-0.3298,-0.3324,-0.3394,-0.3404,-0.3381,-0.334,-0.3286,-0.3391,-0.3169,-0.3161,-0.3074,-0.3058,-0.2885,-0.269,-0.3131,-0.3128,-0.3125,0,-0.2777,-0.2857,-0.2963,-0.3012,-0.305,-0.3104,-0.3131,-0.3188,-0.3203,-0.3206,-0.3217,-0.3233,-0.3236,-0.3275,-0.3184,-0.3242,-0.3189,-0.3145,-0.3138,-0.3001,-0.3061,-0.2711,-0.2635,-0.309,-0.3093,-0.3095,-0.3098,0,-0.27,-0.2862,-0.2916,-0.2957,-0.3059,-0.3073,-0.3114,-0.3143,-0.3137,-0.3154,-0.3111,-0.3132,-0.3127,-0.3063,-0.3047,-0.3086,-0.2881,-0.2944,-0.2832,-0.2828,-0.2584,-0.2564,-0.2811,-0.2811,-0.2812,-0.2812,-0.2813,0,-0.2701,-0.2739,-0.2885,-0.2902,-0.292,-0.3005,-0.2973,-0.3025,-0.3035,-0.298,-0.3066,-0.3035,-0.3057,-0.2991,-0.2962,-0.2825,-0.2833,-0.2759,-0.2751,-0.2626,-0.2614,-0.288,-0.2891,-0.2805,-0.2807,-0.2808,-0.2809,0,-0.2575,-0.2692,-0.274,-0.285,-0.288,-0.2875,-0.2895,-0.283,-0.2907,-0.2848,-0.2849,-0.2906,-0.2836,-0.2837,-0.2728,-0.2706,-0.2594,-0.2549,-0.2399,-0.2377,-0.2593,-0.2612,-0.2354,-0.2349,-0.2346,-0.2343,-0.234,0,-0.2519,-0.2543,-0.2657,-0.2645,-0.2693,-0.2704,-0.2657,-0.2747,-0.2706,-0.2762,-0.2707,-0.2692,-0.265,-0.2497,-0.2442,-0.2331,-0.2461,-0.2112,-0.2162,-0.2514,-0.2535,-0.256,-0.2583,-0.1894,-0.1889,-0.1884,-0.188,0,-0.2376,-0.2424,-0.2443,-0.2437,-0.2414,-0.2397,-0.2399,-0.2379,-0.2456,-0.2452,-0.2459,-0.2447,-0.2359,-0.2197,-0.2103,-0.2034,-0.2122,-0.2009,-0.2355,-0.207,-0.2074,-0.2099,-0.2137,-0.1836,-0.1841,-0.1844,-0.1846,-0.1848,-0.223,-0.2194,-0.2202,-0.2173,-0.2152,-0.2114,-0.2057,-0.2081,-0.2062,-0.2082,-0.2173,-0.2101,-0.2094,-0.186,-0.1749,-0.1671,-0.1828,-0.1753,-0.177,-0.1792,-0.1806,-0.1807,-0.152,-0.1522,-0.1524,-0.1526,-0.1528,0,-0.2016,-0.1975,-0.1917,-0.1885,-0.1791,-0.1879,-0.1856,-0.1796,-0.1764,-0.1798,-0.1807,-0.162,-0.1519,-0.1518,-0.1328,-0.1288,-0.1297,-0.1236,-0.1257,-0.13,-0.1338,-0.1333,-0.0918,-0.0916,-0.0914,-0.0913,0,0,-0.1875,-0.1738,-0.1706,-0.1537,-0.1527,-0.1404,-0.1389,-0.1381,-0.1394,-0.1338,-0.131,-0.1429,-0.1465,-0.1193,-0.1128,-0.0991,-0.1135,-0.0936,-0.1424,-0.1491,-0.1528,-0.1632,-0.1671,0,0,0,0,0]},{"header":{"parameterUnit":"m.s-1","parameterCategory":2,"la1":30.2991,"la2":30.254,"lo1":-89.0895,"lo2":-89.0444,"dy":0.0017,"dx":0.0017,"nx":28,"ny":28,"refTime":"2025-01-24T03:00:00:Z","depth":"2","parameterNumber":3,"parameterNumberName":"V-component_of_CURRENTS"},"data":[0,0,0,0,0,0,0,0,0,0,0,0,0,0,0,0,0,0,0,0,0,0,0,0,0,0,0,0,0,0,0,0,0,0,0,0,0,0,0,0,0,0,0,0,0,0,0,0,0,0,0,0,0,0,0,0,0,0,-0.0733,-0.0736,0,-0.0843,-0.0842,-0.0841,-0.0854,-0.0856,-0.0857,-0.0859,-0.0568,-0.0559,-0.055,0,0,0,0,0,0,0,0,0,0,0,0,0,-0.0623,-0.0621,-0.0733,-0.0737,-0.0741,-0.0844,-0.0842,-0.0841,-0.0854,-0.0856,-0.0858,-0.0859,-0.0571,-0.056,-0.0549,0,0,0,0,0,0,0,0,0,0,0,0,0,-0.0668,-0.0621,-0.0732,-0.0781,-0.0788,-0.0844,-0.0842,-0.0841,-0.0854,-0.0856,-0.0858,-0.086,-0.0574,-0.0561,-0.0547,-0.0417,0,0,-0.0505,-0.0499,0,0,0,0,0,0,0,0,-0.0665,-0.0668,-0.0769,-0.0778,-0.0787,-0.0863,-0.0699,-0.0689,-0.0853,-0.0798,-0.0859,-0.0861,-0.0646,-0.0627,-0.0607,-0.0403,-0.0391,-0.0504,-0.0496,-0.049,-0.0486,0,0,0,0,0,0,0,-0.0662,-0.0664,-0.0747,-0.0774,-0.0785,-0.083,-0.0835,-0.0697,-0.0678,-0.0803,-0.0812,-0.0869,-0.0644,-0.0621,-0.06,-0.0386,-0.0505,-0.0492,-0.0484,-0.0478,-0.0006,-0.0002,0,0,0,0,0,0,-0.0698,-0.066,-0.0745,-0.0754,-0.0763,-0.0832,-0.0836,-0.0812,-0.0689,-0.0684,-0.0867,-0.087,-0.0643,-0.0616,-0.0589,-0.04,-0.049,-0.0477,-0.0469,-0.001,-0.0005,-0.0001,0,0,0,0,0,0,-0.0693,-0.07,-0.0741,-0.0738,-0.075,-0.0834,-0.0806,-0.0814,-0.0815,-0.0747,-0.0729,-0.0867,-0.0644,-0.0609,-0.0495,-0.039,-0.0471,-0.0458,-0.0015,-0.0009,-0.0003,-0.0036,0,0,0,0,0,0,-0.0688,-0.0695,-0.0694,-0.0737,-0.0753,-0.081,-0.0807,-0.0816,-0.086,-0.0863,-0.0739,-0.0715,-0.0643,-0.0517,-0.0482,-0.0372,-0.0448,-0.0021,-0.0013,-0.0005,-0.0041,-0.0032,-0.0024,0,0,0,0,0,-0.0682,-0.0689,-0.069,-0.0705,-0.0742,-0.0815,-0.0823,-0.0874,-0.0858,-0.0872,-0.0781,-0.072,-0.0438,-0.0504,-0.0463,-0.0347,-0.0025,-0.0015,-0.0006,-0.0044,-0.0034,-0.0025,0,0,0,0,0,0,-0.0658,-0.0695,-0.0697,-0.0716,-0.0781,-0.0829,-0.0849,-0.0874,-0.0813,-0.0771,-0.0691,-0.066,-0.0509,-0.0424,-0.05,-0.0182,-0.0206,-0.0188,-0.0249,-0.0238,-0.023,-0.0385,-0.0436,0,0,0,0,0,-0.0649,-0.0659,-0.071,-0.0743,-0.0741,-0.078,-0.0815,-0.0835,-0.0811,-0.0789,-0.071,-0.0571,-0.0427,-0.0346,-0.022,-0.0057,-0.006,0.0058,0.0066,0.0071,-0.0023,0.0082,0.0088,0.0031,0.0031,0.0031,0,0,-0.068,-0.0692,-0.0714,-0.0743,-0.0753,-0.0764,-0.0796,-0.0827,-0.0821,-0.075,-0.066,-0.0547,-0.0384,-0.0216,-0.0133,-0.0138,0.0094,0.0084,0.0087,-0.0013,0.0092,0.0097,0.01,0.0038,0.0037,0.0036,0,0,-0.0729,-0.07,-0.0709,-0.0726,-0.0761,-0.0769,-0.0782,-0.079,-0.0761,-0.0698,-0.0602,-0.0472,-0.0278,-0.0147,-0.0048,0.0088,0.0121,0.0183,0.0115,0.0222,0.0224,0.0226,0.023,0.0232,0.0202,0.0202,0.0202,0,-0.0751,-0.0755,-0.0744,-0.0732,-0.0763,-0.0764,-0.0776,-0.0733,-0.0719,-0.0678,-0.0674,-0.0396,-0.0249,-0.0044,-0.0013,0.0106,0.0108,0.0059,0.0222,0.0224,0.0226,0.023,0.0232,0.0202,0.0202,0.0202,0.0202,0,-0.0792,-0.079,-0.0786,-0.0754,-0.0775,-0.0788,-0.0747,-0.0706,-0.0668,-0.0648,-0.049,-0.0329,-0.0182,-0.006,-0.0012,0.0135,0.0109,0.0202,0.0167,0.0227,0.0231,0.0234,0.0201,0.0201,0.0201,0.0201,0,0,-0.0833,-0.0819,-0.0813,-0.0809,-0.0776,-0.0799,-0.0725,-0.0693,-0.0645,-0.0568,-0.0517,-0.0275,-0.0227,-0.0121,0.0024,0.0088,0.0137,0.011,0.0116,0.0053,0.0267,0.0319,0.0327,0.0245,0.0246,0.0246,0.0259,0,-0.0864,-0.087,-0.0853,-0.0867,-0.0857,-0.0808,-0.0765,-0.0713,-0.0645,-0.0573,-0.0402,-0.028,-0.0218,-0.0132,-0.0055,0.008,0.014,0.0116,0.0263,0.0264,0.0257,0.0333,0.0315,0.033,0.0262,0.0263,0.0263,0,-0.0893,-0.0893,-0.0917,-0.0906,-0.089,-0.0895,-0.0823,-0.0786,-0.0655,-0.0592,-0.0474,-0.0363,-0.0231,-0.0176,-0.0004,-0.0038,0.0073,0.0153,0.0161,0.0193,0.0323,0.0268,0.0338,0.0268,0.0268,0.0267,0.0267,0,-0.0941,-0.0934,-0.0966,-0.096,-0.0935,-0.092,-0.0901,-0.0799,-0.0743,-0.061,-0.0567,-0.0405,-0.0298,-0.0182,-0.0008,-0.0014,0.0136,0.0212,0.0353,0.0355,0.0352,0.0355,0.0324,0.0324,0.0324,0.0324,0.0324,0,-0.0981,-0.0994,-0.099,-0.0999,-0.1011,-0.0973,-0.0949,-0.0886,-0.0788,-0.0727,-0.0586,-0.0495,-0.0305,-0.0168,-0.0049,0.0137,0.0147,0.0286,0.0372,0.0348,0.035,0.0308,0.0305,0.0324,0.0324,0.0324,0.0324,0,-0.103,-0.1033,-0.1058,-0.1045,-0.104,-0.1047,-0.1002,-0.0968,-0.0877,-0.0794,-0.0757,-0.0567,-0.0404,-0.0215,0.0005,0.0128,0.0292,0.0384,0.0281,0.0355,0.0418,0.0415,0.0474,0.0476,0.0478,0.0479,0.048,0,-0.1056,-0.1078,-0.1097,-0.1107,-0.1105,-0.1101,-0.1092,-0.1019,-0.0976,-0.0827,-0.079,-0.0602,-0.044,-0.0137,0.0105,0.0323,0.0362,0.0454,0.0476,0.0359,0.0438,0.0432,0.0427,0.045,0.0451,0.0452,0.0452,0,-0.1089,-0.1104,-0.1123,-0.1146,-0.1159,-0.1167,-0.1145,-0.1123,-0.1027,-0.095,-0.081,-0.0678,-0.0363,-0.0097,0.0219,0.0353,0.0399,0.0478,0.0438,0.0431,0.0345,0.042,0.0414,0.0459,0.0458,0.0458,0.0457,0.0457,-0.1101,-0.1126,-0.1147,-0.1167,-0.1192,-0.1204,-0.12,-0.1153,-0.1092,-0.0943,-0.0833,-0.0611,-0.0359,0.0093,0.0307,0.051,0.0497,0.0553,0.0547,0.0542,0.0553,0.0479,0.0611,0.0612,0.0612,0.0612,0.0612,0,-0.1095,-0.112,-0.1148,-0.1179,-0.1211,-0.1218,-0.1207,-0.1171,-0.1097,-0.0938,-0.0784,-0.0482,-0.0169,0.0095,0.0422,0.0606,0.0586,0.0637,0.0572,0.0564,0.0558,0.0567,0.0631,0.0631,0.0632,0.0632,0,0,-0.1087,-0.1107,-0.1125,-0.1169,-0.1201,-0.123,-0.1227,-0.1153,-0.1031,-0.0857,-0.0682,-0.0462,-0.0147,0.0087,0.0315,0.0489,0.0479,0.0505,0.0471,0.036,0.0352,0.0491,0.0497,0,0,0,0,0]}],[{"header":{"parameterUnit":"m.s-1","parameterCategory":2,"la1":30.2991,"la2":30.254,"lo1":-89.0895,"lo2":-89.0444,"dy":0.0017,"dx":0.0017,"nx":28,"ny":28,"refTime":"2025-01-24T03:00:00:Z","depth":"4","parameterNumber":2,"parameterNumberName":"U-component_of_CURRENTS"},"data":[0,0,0,0,0,0,0,0,0,0,0,0,0,0,0,0,0,0,0,0,0,0,0,0,0,0,0,0,0,0,0,0,0,0,0,0,0,0,0,0,0,0,0,0,0,0,0,0,0,0,0,0,0,0,0,0,0,0,-0.1381,-0.138,0,-0.1334,-0.1333,-0.1333,-0.1341,-0.1342,-0.1343,-0.1344,-0.1463,-0.1465,-0.1468,0,0,0,0,0,0,0,0,0,0,0,0,0,-0.143,-0.1429,-0.1381,-0.138,-0.138,-0.1334,-0.1333,-0.1332,-0.1341,-0.1342,-0.1343,-0.1344,-0.1462,-0.1465,-0.1468,0,0,0,0,0,0,0,0,0,0,0,0,0,-0.1398,-0.1429,-0.1381,-0.1379,-0.1378,-0.1334,-0.1333,-0.1332,-0.1341,-0.1342,-0.1344,-0.1345,-0.1461,-0.1465,-0.1468,-0.1464,0,0,-0.1479,-0.1481,0,0,0,0,0,0,0,0,-0.14,-0.1396,-0.138,-0.1379,-0.1378,-0.1345,-0.1394,-0.1385,-0.1341,-0.1355,-0.1344,-0.1345,-0.1438,-0.1444,-0.1429,-0.1469,-0.1475,-0.1479,-0.1482,-0.1483,-0.1484,0,0,0,0,0,0,0,-0.1402,-0.1398,-0.1362,-0.1379,-0.1378,-0.1364,-0.1361,-0.1391,-0.1393,-0.1354,-0.1354,-0.1349,-0.1439,-0.1425,-0.1433,-0.1476,-0.1479,-0.1482,-0.1485,-0.1486,-0.1611,-0.1612,0,0,0,0,0,0,-0.141,-0.14,-0.1363,-0.136,-0.1393,-0.1362,-0.1359,-0.1354,-0.1389,-0.1394,-0.1348,-0.135,-0.1419,-0.1428,-0.1437,-0.1516,-0.1483,-0.1486,-0.1488,-0.1609,-0.1611,-0.1612,0,0,0,0,0,0,-0.1411,-0.1407,-0.1365,-0.138,-0.1373,-0.136,-0.1354,-0.1352,-0.1365,-0.1383,-0.1391,-0.1366,-0.142,-0.1432,-0.1483,-0.1518,-0.1488,-0.1491,-0.1608,-0.161,-0.1611,-0.1623,0,0,0,0,0,0,-0.1412,-0.1407,-0.142,-0.138,-0.1373,-0.1368,-0.1353,-0.1351,-0.1359,-0.1361,-0.1401,-0.1411,-0.1422,-0.1478,-0.1487,-0.1523,-0.1494,-0.1606,-0.1609,-0.1611,-0.1621,-0.1625,-0.1629,0,0,0,0,0,-0.1414,-0.1423,-0.1421,-0.1417,-0.1386,-0.1369,-0.1365,-0.1358,-0.1359,-0.1373,-0.1393,-0.1411,-0.1499,-0.1481,-0.1492,-0.153,-0.1605,-0.1608,-0.1611,-0.162,-0.1625,-0.1629,0,0,0,0,0,0,-0.1443,-0.1424,-0.1421,-0.1422,-0.1411,-0.1371,-0.1383,-0.1372,-0.1392,-0.1406,-0.142,-0.1432,-0.1494,-0.1507,-0.1487,-0.1572,-0.1558,-0.1563,-0.1562,-0.1567,-0.157,-0.1596,-0.1497,0,0,0,0,0,-0.1455,-0.1461,-0.1438,-0.1438,-0.1441,-0.1416,-0.1412,-0.1406,-0.1408,-0.1417,-0.145,-0.1482,-0.1506,-0.1533,-0.1566,-0.1607,-0.1619,-0.1641,-0.1645,-0.1647,-0.1676,-0.1684,-0.1691,-0.1621,-0.1621,-0.1621,0,0,-0.1458,-0.1453,-0.1452,-0.1446,-0.1437,-0.1453,-0.1419,-0.1423,-0.1446,-0.1431,-0.1498,-0.1505,-0.1521,-0.1567,-0.1597,-0.1587,-0.1676,-0.1651,-0.1653,-0.1681,-0.1688,-0.1694,-0.17,-0.1623,-0.1622,-0.1622,0,0,-0.1466,-0.1473,-0.1485,-0.1494,-0.1496,-0.1488,-0.1499,-0.1492,-0.1508,-0.1553,-0.1543,-0.1562,-0.163,-0.1623,-0.163,-0.1674,-0.1696,-0.1699,-0.1738,-0.1744,-0.175,-0.1755,-0.1782,-0.179,-0.1697,-0.1697,-0.1697,0,-0.1478,-0.1489,-0.1485,-0.1511,-0.1524,-0.1515,-0.1538,-0.1551,-0.1566,-0.1581,-0.1598,-0.1642,-0.1654,-0.1665,-0.1685,-0.1684,-0.1704,-0.1714,-0.1748,-0.1753,-0.1758,-0.1785,-0.1793,-0.1698,-0.1698,-0.1698,-0.1698,0,-0.1493,-0.1522,-0.1534,-0.1571,-0.1586,-0.1605,-0.1624,-0.1655,-0.1681,-0.1688,-0.1731,-0.1726,-0.1747,-0.1749,-0.174,-0.1772,-0.1781,-0.1749,-0.1732,-0.1766,-0.1792,-0.18,-0.17,-0.1699,-0.1699,-0.1699,0,0,-0.1469,-0.1533,-0.1543,-0.1563,-0.1624,-0.1619,-0.1689,-0.1719,-0.1743,-0.1787,-0.1815,-0.184,-0.1829,-0.1835,-0.1805,-0.1814,-0.1857,-0.1813,-0.1813,-0.1835,-0.1902,-0.1746,-0.174,-0.1833,-0.1835,-0.1836,-0.1906,0,-0.1486,-0.1537,-0.1575,-0.1625,-0.165,-0.1688,-0.1739,-0.177,-0.1814,-0.1852,-0.1846,-0.1875,-0.1862,-0.1859,-0.1869,-0.1862,-0.1881,-0.1844,-0.1874,-0.1876,-0.1726,-0.1744,-0.1841,-0.1912,-0.1914,-0.1916,-0.1917,0,-0.1491,-0.1526,-0.1585,-0.1636,-0.1651,-0.169,-0.1748,-0.1787,-0.1848,-0.1883,-0.1915,-0.1926,-0.1948,-0.1925,-0.1957,-0.1941,-0.1944,-0.1937,-0.1938,-0.1799,-0.1734,-0.1873,-0.1931,-0.193,-0.1929,-0.1928,-0.1927,0,-0.145,-0.1523,-0.1568,-0.1595,-0.1666,-0.1697,-0.1729,-0.1797,-0.1822,-0.19,-0.1938,-0.197,-0.1985,-0.2004,-0.201,-0.2,-0.2044,-0.2009,-0.1876,-0.1866,-0.1982,-0.1975,-0.2042,-0.2042,-0.2042,-0.2041,-0.2041,0,-0.144,-0.1472,-0.1551,-0.1574,-0.1593,-0.1665,-0.1699,-0.1741,-0.1818,-0.1848,-0.1938,-0.196,-0.2013,-0.204,-0.2041,-0.1983,-0.2068,-0.1899,-0.1868,-0.1986,-0.1979,-0.1988,-0.198,-0.2044,-0.2043,-0.2043,-0.2043,0,-0.1375,-0.1449,-0.1483,-0.1562,-0.1575,-0.1582,-0.1647,-0.1671,-0.1777,-0.1824,-0.1855,-0.1968,-0.2006,-0.2037,-0.2063,-0.1995,-0.1965,-0.1923,-0.2077,-0.2051,-0.1789,-0.1782,-0.1791,-0.1786,-0.1781,-0.1778,-0.1775,0,-0.1344,-0.1366,-0.1432,-0.1437,-0.1474,-0.1503,-0.1521,-0.162,-0.1659,-0.1806,-0.1817,-0.1908,-0.1963,-0.1892,-0.1936,-0.1917,-0.1881,-0.1869,-0.1809,-0.1792,-0.1762,-0.1761,-0.176,-0.1768,-0.1767,-0.1766,-0.1765,0,-0.1268,-0.131,-0.1325,-0.1333,-0.1356,-0.1362,-0.1411,-0.1428,-0.156,-0.1677,-0.173,-0.1752,-0.1788,-0.1799,-0.1788,-0.1772,-0.1876,-0.1824,-0.1833,-0.1776,-0.1764,-0.1739,-0.1742,-0.175,-0.1752,-0.1753,-0.1754,0,-0.1197,-0.1172,-0.1204,-0.1188,-0.1215,-0.1214,-0.1257,-0.1311,-0.1358,-0.1547,-0.1559,-0.1669,-0.1773,-0.1724,-0.1719,-0.1681,-0.1648,-0.1588,-0.1608,-0.1625,-0.1529,-0.1486,-0.1369,0,0,0,0,0,-0.1107,-0.1062,-0.105,-0.1031,-0.1065,-0.108,-0.1174,-0.1247,-0.1394,-0.1383,-0.1467,-0.1498,-0.1506,-0.1564,-0.1485,-0.1623,-0.1642,-0.1523,-0.158,-0.1668,-0.1685,-0.1582,0,0,0,0,0,0,-0.1043,-0.1024,-0.1,-0.0914,-0.0881,-0.0903,-0.0965,-0.1076,-0.1087,-0.125,-0.1263,-0.1378,-0.1405,-0.1513,-0.1442,-0.1454,-0.1452,-0.1586,-0.1582,-0.1658,-0.1674,-0.1688,-0.1588,0,0,0,0,0]},{"header":{"parameterUnit":"m.s-1","parameterCategory":2,"la1":30.2991,"la2":30.254,"lo1":-89.0895,"lo2":-89.0444,"dy":0.0017,"dx":0.0017,"nx":28,"ny":28,"refTime":"2025-01-24T03:00:00:Z","depth":"4","parameterNumber":3,"parameterNumberName":"V-component_of_CURRENTS"},"data":[0,0,0,0,0,0,0,0,0,0,0,0,0,0,0,0,0,0,0,0,0,0,0,0,0,0,0,0,0,0,0,0,0,0,0,0,0,0,0,0,0,0,0,0,0,0,0,0,0,0,0,0,0,0,0,0,0,0,-0.069,-0.0691,0,-0.0791,-0.0792,-0.0792,-0.0785,-0.0784,-0.0784,-0.0783,-0.0736,-0.0736,-0.0735,0,0,0,0,0,0,0,0,0,0,0,0,0,-0.0555,-0.0556,-0.0689,-0.0691,-0.0694,-0.0791,-0.0792,-0.0792,-0.0785,-0.0784,-0.0784,-0.0783,-0.0737,-0.0736,-0.0735,0,0,0,0,0,0,0,0,0,0,0,0,0,-0.0622,-0.0557,-0.0689,-0.0708,-0.0712,-0.0791,-0.0792,-0.0792,-0.0785,-0.0784,-0.0783,-0.0782,-0.0737,-0.0736,-0.0735,-0.075,0,0,-0.0732,-0.0732,0,0,0,0,0,0,0,0,-0.0618,-0.0626,-0.0703,-0.0707,-0.0711,-0.0782,-0.0728,-0.0774,-0.0786,-0.0748,-0.0783,-0.0782,-0.0744,-0.0743,-0.0754,-0.0748,-0.0746,-0.0732,-0.0732,-0.0731,-0.0731,0,0,0,0,0,0,0,-0.0613,-0.0622,-0.0721,-0.0706,-0.0711,-0.0735,-0.0742,-0.0737,-0.0741,-0.0751,-0.0753,-0.0779,-0.0744,-0.0755,-0.0752,-0.0745,-0.0732,-0.0731,-0.0731,-0.0731,-0.0761,-0.0762,0,0,0,0,0,0,-0.0617,-0.0617,-0.0718,-0.0725,-0.0671,-0.0739,-0.0746,-0.0753,-0.0745,-0.0746,-0.078,-0.0779,-0.0757,-0.0753,-0.0751,-0.0774,-0.0731,-0.073,-0.073,-0.076,-0.0761,-0.0763,0,0,0,0,0,0,-0.0613,-0.0624,-0.0714,-0.0681,-0.0696,-0.0743,-0.0751,-0.0756,-0.0777,-0.077,-0.0766,-0.0797,-0.0756,-0.0752,-0.0751,-0.0772,-0.073,-0.0729,-0.0758,-0.076,-0.0762,-0.0817,0,0,0,0,0,0,-0.0608,-0.0621,-0.0639,-0.0681,-0.0698,-0.0761,-0.0753,-0.0759,-0.0798,-0.0797,-0.0783,-0.0777,-0.0755,-0.0753,-0.075,-0.077,-0.0729,-0.0756,-0.0759,-0.0761,-0.0813,-0.0821,-0.0827,0,0,0,0,0,-0.0603,-0.0625,-0.0639,-0.0653,-0.0716,-0.0763,-0.0773,-0.0797,-0.08,-0.081,-0.0802,-0.0778,-0.0767,-0.0753,-0.075,-0.0769,-0.0755,-0.0758,-0.0761,-0.081,-0.0819,-0.0826,0,0,0,0,0,0,-0.058,-0.0629,-0.0644,-0.0681,-0.0723,-0.0765,-0.079,-0.0809,-0.0816,-0.0812,-0.0792,-0.0786,-0.0795,-0.0779,-0.0764,-0.0788,-0.0759,-0.0762,-0.0798,-0.0806,-0.0812,-0.0789,-0.0728,0,0,0,0,0,-0.0586,-0.0613,-0.0661,-0.0697,-0.0713,-0.0755,-0.0784,-0.0801,-0.0817,-0.082,-0.0813,-0.0807,-0.0807,-0.0802,-0.0796,-0.0808,-0.0735,-0.0821,-0.0827,-0.0833,-0.0814,-0.0734,-0.073,-0.0773,-0.0773,-0.0773,0,0,-0.0599,-0.0625,-0.0647,-0.0695,-0.0724,-0.0752,-0.0766,-0.0809,-0.083,-0.0812,-0.0826,-0.0828,-0.0816,-0.0827,-0.083,-0.0815,-0.0781,-0.0837,-0.0842,-0.0818,-0.0736,-0.0731,-0.0727,-0.0775,-0.0774,-0.0774,0,0,-0.062,-0.0645,-0.0668,-0.0693,-0.0745,-0.0769,-0.0784,-0.0828,-0.0837,-0.0864,-0.0857,-0.0869,-0.0871,-0.0866,-0.0864,-0.0905,-0.082,-0.0915,-0.0926,-0.085,-0.0844,-0.0839,-0.0723,-0.0707,-0.0917,-0.0917,-0.0917,0,-0.063,-0.0661,-0.0687,-0.0704,-0.0733,-0.0773,-0.08,-0.082,-0.086,-0.0862,-0.0869,-0.0885,-0.0886,-0.0891,-0.0913,-0.0918,-0.084,-0.0896,-0.0854,-0.0847,-0.084,-0.0724,-0.0705,-0.092,-0.092,-0.0919,-0.0919,0,-0.0659,-0.0685,-0.0698,-0.0728,-0.0758,-0.0792,-0.0822,-0.0843,-0.0869,-0.0884,-0.0902,-0.0913,-0.0913,-0.0937,-0.0939,-0.0914,-0.0862,-0.087,-0.0826,-0.0839,-0.0716,-0.0695,-0.0924,-0.0923,-0.0922,-0.0922,0,0,-0.0671,-0.0712,-0.0716,-0.0733,-0.0773,-0.0802,-0.0823,-0.0854,-0.0862,-0.0895,-0.0896,-0.0933,-0.0936,-0.0934,-0.0948,-0.0904,-0.0807,-0.0871,-0.0866,-0.0741,-0.059,-0.0598,-0.0575,-0.0799,-0.0797,-0.0795,-0.0516,0,-0.0687,-0.0724,-0.0739,-0.078,-0.0803,-0.0825,-0.0845,-0.0871,-0.0884,-0.0887,-0.0899,-0.0906,-0.0934,-0.0944,-0.0906,-0.0838,-0.0757,-0.0878,-0.0609,-0.06,-0.0594,-0.0555,-0.0786,-0.05,-0.0495,-0.0492,-0.0489,0,-0.0706,-0.0728,-0.077,-0.0805,-0.0816,-0.0844,-0.0871,-0.0893,-0.089,-0.0893,-0.089,-0.0885,-0.0852,-0.0873,-0.0716,-0.0786,-0.0681,-0.0619,-0.0607,-0.0576,-0.0571,-0.049,-0.045,-0.0453,-0.0456,-0.0459,-0.0461,0,-0.0709,-0.0747,-0.0785,-0.0797,-0.0841,-0.0859,-0.0886,-0.0897,-0.0909,-0.0886,-0.0874,-0.083,-0.08,-0.0687,-0.0585,-0.0625,-0.0379,-0.0412,-0.0301,-0.0298,-0.0347,-0.0356,-0.0252,-0.0253,-0.0253,-0.0254,-0.0255,0,-0.0719,-0.0746,-0.0791,-0.0811,-0.0852,-0.0874,-0.0907,-0.0913,-0.0915,-0.0909,-0.0879,-0.0848,-0.075,-0.0623,-0.0525,-0.0342,-0.0312,-0.0268,-0.0227,-0.0377,-0.0393,-0.033,-0.0343,-0.0244,-0.0246,-0.0248,-0.025,0,-0.0717,-0.075,-0.0792,-0.084,-0.0859,-0.0889,-0.0935,-0.0949,-0.0937,-0.0919,-0.0907,-0.0818,-0.0651,-0.0527,-0.0315,-0.0255,-0.0092,-0.0026,-0.0148,-0.0123,-0.0063,-0.0082,0.0149,0.0151,0.0152,0.0154,0.0155,0,-0.0719,-0.0743,-0.0809,-0.0843,-0.087,-0.0916,-0.095,-0.0967,-0.0968,-0.0901,-0.088,-0.0724,-0.0651,-0.0325,-0.0218,0.0025,0.0023,0.0137,-0.0013,-0.0038,-0.0021,-0.0043,-0.0064,0.0158,0.0158,0.0159,0.0159,0,-0.0716,-0.0748,-0.0785,-0.0849,-0.0897,-0.094,-0.0977,-0.0975,-0.0968,-0.0955,-0.0821,-0.0681,-0.0481,-0.0298,-0.0102,0.0045,0.0063,0.0155,0.0151,0.0011,-0.0025,-0.0014,-0.0036,0.0165,0.0164,0.0164,0.0163,0,-0.0714,-0.074,-0.0795,-0.0844,-0.091,-0.094,-0.0963,-0.0942,-0.0935,-0.086,-0.0806,-0.0619,-0.0514,-0.0281,-0.0112,0.0038,0.0048,0.0069,0.0069,0.0064,-0.0093,-0.0159,0.0058,0,0,0,0,0,-0.0706,-0.0734,-0.0783,-0.0843,-0.0906,-0.0939,-0.0969,-0.098,-0.0963,-0.0865,-0.0836,-0.0655,-0.04,-0.029,-0.0134,-0.0108,0.0058,0.0076,0.0078,0.0198,0.0191,0.0013,0,0,0,0,0,0,-0.0705,-0.0753,-0.0772,-0.0827,-0.0867,-0.0927,-0.0948,-0.0938,-0.0878,-0.0838,-0.0695,-0.0631,-0.0381,-0.0483,-0.0133,-0.009,-0.0072,0.0191,0.0194,0.0202,0.0196,0.019,0.0005,0,0,0,0,0]}]]